sat.trackr.live / text

‹ back to catalog

ZHANGHENG 1-01 (CSES-1)

NORAD 43194 · 2018-015C

PAYLOAD ACTIVE UNKNOWN

§ Identity

Operator
Country
PRC
Launch date
2018-02-02
Launch site
JSC
Launch vehicle
Mass (kg)
RCS (m²)

Purposes: science

External: N2YO · Heavens-Above · Gunter

§ Orbital elements

Epoch: 2026-09-20T05:07:45.713856Z

Period
94.70 min
Inclination
97.6964°
Eccentricity
0.0013222
Mean motion
15.20665247 rev/d
Perigee alt
494.7 km
Apogee alt
512.9 km
Semi-major
6,882.0 km
B*
2.1154e-4
RAAN
70.8156°
Arg perigee
309.8221°
Mean anomaly
50.1849°
Rev number
47,908

§ Raw data

ZHANGHENG 1-01 (CSES-1)1 43194U 18015C   26263.21372354  .00004581  00000+0  21154-3 0  99952 43194  97.6964  70.8156 0013222 309.8221  50.1849 15.20665247479089

JSON: /api/v1/satellites/43194 · /tle

For live sub-satellite position, see the globe view (requires WebGL).

§ Visibility from observer

Set your observer location to see the next 7 days of passes ≥ 10°. The values pass through the URL so the page stays shareable.

No JS? Fill the form by hand. The geolocation button needs JavaScript.

§ Radio — SatNOGS DB

ModeDescriptionDownlinkUplink
BPSK S-band telemetry 2.229 GHz

1 transmitter · refreshed weekly from db.satnogs.org